Corpus Christi, TX

5:32 AM CST on December 07, 2016 (GMT -0600)
North Padre Island

Weather History for KOPM - March, 2014

Change the Weather History Date:

Saturday, March 22, 2014

  Actual Average (KHRL) Record (KHRL)
Temperature  
Mean Temperature 70 °F 70 °F  
Max Temperature 71 °F 82 °F 95 °F (1952)
Min Temperature 68 °F 59 °F 37 °F (2010)
Degree Days  
Heating Degree Days 0 1  
Month to date heating degree days 40  
Since 1 July heating degree days 608  
Cooling Degree Days 4 6  
Month to date cooling degree days 107  
Year to date cooling degree days 232  
Growing Degree Days 20 (Base 50)    
Moisture  
Dew Point 70 °F    
Average Humidity 100    
Maximum Humidity 100    
Minimum Humidity 100    
Precipitation  
Precipitation 0.00 in 0.05 in 0.70 in (1941)
Month to date precipitation 0.82  
Year to date precipitation 3.29  
Sea Level Pressure  
Sea Level Pressure 29.92 in    
Wind  
Wind Speed 12 mph (ESE)    
Max Wind Speed 15 mph    
Max Gust Speed -    
Visibility 3 miles    
Events Fog    
T = Trace of Precipitation, MM = Missing Value Source: NWS Daily Summary

Daily Weather History Graph

Daily Weather History Graph

Search for Another Location

Airport or City:

Trip Planner

Search our weather history database for the weather conditions in past years. The results will help you decide how hot, cold, wet, or windy it might be!

Date:

Astronomy

Mar. 22, 2014 Rise Set
Actual Time 7:29 AM CDT 7:40 PM CDT
Civil Twilight 7:06 AM CDT 8:03 PM CDT
Nautical Twilight 6:39 AM CDT 8:30 PM CDT
Astronomical Twilight 6:12 AM CDT 8:57 PM CDT
Moon 12:35 AM CDT (3/22) 11:40 AM CDT (3/22)
Length of Visible Light 12h 57m
Length of Day
12h 10m
Waning Gibbous, 65% of the Moon is Illuminated
Mar 22
Waning Gibbous
Mar 23
Last Quarter
Mar 30
New
Apr 7
First Quarter
Apr 15
Full

Hourly Weather History & Observations

Time (CDT) Temp. Dew Point Humidity Pressure Visibility Wind Dir Wind Speed Gust Speed Precip Events Conditions
12:15 AM 69.8 °F 69.8 °F 100% 29.91 in 4.0 mi ESE 15.0 mph - N/A   Overcast
12:35 AM 69.8 °F 69.8 °F 100% 29.91 in 4.0 mi ESE 11.5 mph - N/A   Overcast
12:55 AM 69.8 °F 69.8 °F 100% 29.91 in 4.0 mi ESE 12.7 mph - N/A   Overcast
1:15 AM 69.8 °F 69.8 °F 100% 29.91 in 4.0 mi ESE 12.7 mph - N/A   Overcast
1:35 AM 69.8 °F 69.8 °F 100% 29.90 in 3.0 mi ESE 11.5 mph - N/A   Overcast
1:55 AM 69.8 °F 69.8 °F 100% 29.90 in 4.0 mi ESE 13.8 mph - N/A   Overcast
2:15 AM 69.8 °F 69.8 °F 100% 29.90 in 3.0 mi ESE 13.8 mph - N/A   Overcast
2:35 AM 69.8 °F 69.8 °F 100% 29.89 in 4.0 mi SE 13.8 mph - N/A   Overcast
2:55 AM 69.8 °F 69.8 °F 100% 29.89 in 3.0 mi SE 12.7 mph - N/A   Overcast
3:15 AM 69.8 °F 69.8 °F 100% 29.89 in 3.0 mi SE 12.7 mph - N/A   Overcast
3:35 AM 69.8 °F 69.8 °F 100% 29.89 in 2.5 mi SE 11.5 mph - N/A   Overcast
3:55 AM 69.8 °F 69.8 °F 100% 29.88 in 2.0 mi SE 12.7 mph - N/A   Overcast
4:15 AM 69.8 °F 69.8 °F 100% 29.88 in 2.0 mi ESE 11.5 mph - N/A   Overcast
4:35 AM 69.8 °F 69.8 °F 100% 29.88 in 2.5 mi ESE 10.4 mph - N/A   Overcast
4:55 AM 69.8 °F 69.8 °F 100% 29.88 in 2.0 mi ESE 11.5 mph - N/A   Overcast
5:15 AM 69.8 °F 69.8 °F 100% 29.88 in 2.5 mi SE 13.8 mph - N/A   Overcast
5:35 AM 69.8 °F 69.8 °F 100% 29.89 in 2.5 mi SE 13.8 mph - N/A   Overcast
5:55 AM 69.8 °F 69.8 °F 100% 29.89 in 2.0 mi SE 13.8 mph - N/A   Overcast
6:15 AM 69.8 °F 69.8 °F 100% 29.89 in 3.0 mi SE 13.8 mph - N/A   Overcast
6:35 AM 69.8 °F 69.8 °F 100% 29.90 in 3.0 mi SE 11.5 mph - N/A   Overcast
6:55 AM 69.8 °F 69.8 °F 100% 29.90 in 1.2 mi SE 10.4 mph - N/A   Overcast
7:15 AM 69.8 °F 69.8 °F 100% 29.91 in 0.5 mi SE 10.4 mph - N/A   Overcast
7:35 AM 69.8 °F 69.8 °F 100% 29.92 in 0.2 mi SE 11.5 mph - N/A Fog Fog
7:55 AM 69.8 °F 69.8 °F 100% 29.92 in 0.2 mi SE 12.7 mph - N/A Fog Fog
8:15 AM 69.8 °F 69.8 °F 100% 29.93 in 0.2 mi SE 13.8 mph - N/A Fog Fog
8:35 AM 68.0 °F 68.0 °F 100% 29.93 in 0.2 mi SE 11.5 mph - N/A Fog Fog
8:55 AM 69.8 °F 69.8 °F 100% 29.94 in 0.2 mi SE 11.5 mph - N/A Fog Fog
9:15 AM 68.0 °F 68.0 °F 100% 29.94 in 0.2 mi SE 11.5 mph - N/A Fog Fog
9:35 AM 69.8 °F 69.8 °F 100% 29.95 in 0.2 mi SE 15.0 mph - N/A Fog Fog
9:55 AM 68.0 °F 68.0 °F 100% 29.95 in 0.2 mi SE 13.8 mph - N/A Fog Fog
10:15 AM 68.0 °F 68.0 °F 100% 29.95 in 0.2 mi SE 13.8 mph - N/A Fog Fog
10:35 AM 68.0 °F 68.0 °F 100% 29.96 in 0.2 mi SE 13.8 mph - N/A Fog Fog
10:55 AM 68.0 °F 68.0 °F 100% 29.97 in 0.2 mi ESE 12.7 mph - N/A Fog Fog
11:15 AM 68.0 °F 68.0 °F 100% 29.97 in 0.2 mi ESE 11.5 mph - N/A Fog Fog
11:35 AM 69.8 °F 69.8 °F 100% 29.97 in 0.2 mi ESE 12.7 mph - N/A Fog Fog
11:55 AM 68.0 °F 68.0 °F 100% 29.96 in 0.2 mi ESE 11.5 mph - N/A Fog Fog
12:15 PM 69.8 °F 69.8 °F 100% 29.96 in 0.2 mi SE 13.8 mph - N/A Fog Fog
12:35 PM 69.8 °F 69.8 °F 100% 29.96 in - ESE 11.5 mph - N/A   Unknown
12:55 PM 69.8 °F 69.8 °F 100% 29.95 in 0.2 mi ESE 11.5 mph - N/A Fog Fog
1:15 PM 69.8 °F 69.8 °F 100% 29.95 in 0.2 mi ESE 11.5 mph - N/A Fog Fog
1:35 PM 69.8 °F 69.8 °F 100% 29.95 in 2.0 mi ESE 10.4 mph - N/A   Mostly Cloudy
1:55 PM 69.8 °F 69.8 °F 100% 29.94 in 3.0 mi ESE 10.4 mph - N/A   Overcast
2:15 PM 69.8 °F 69.8 °F 100% 29.94 in 4.0 mi ESE 10.4 mph - N/A   Overcast
2:35 PM 69.8 °F 69.8 °F 100% 29.93 in 4.0 mi ESE 10.4 mph - N/A   Overcast
2:55 PM 71.6 °F 71.6 °F 100% 29.93 in 5.0 mi ESE 11.5 mph - N/A   Overcast
3:15 PM 71.6 °F 71.6 °F 100% 29.92 in 5.0 mi ESE 10.4 mph - N/A   Overcast
3:35 PM 71.6 °F 71.6 °F 100% 29.92 in 4.0 mi East 9.2 mph - N/A   Overcast
3:55 PM 71.6 °F 71.6 °F 100% 29.91 in 5.0 mi East 8.1 mph - N/A   Mostly Cloudy
4:15 PM 71.6 °F 71.6 °F 100% 29.91 in 5.0 mi East 9.2 mph - N/A   Mostly Cloudy
4:35 PM 71.6 °F 71.6 °F 100% 29.90 in 5.0 mi East 10.4 mph - N/A   Scattered Clouds
4:55 PM 71.6 °F 71.6 °F 100% 29.90 in 6.0 mi East 9.2 mph - N/A   Partly Cloudy
5:15 PM 71.6 °F 71.6 °F 100% 29.90 in 5.0 mi East 9.2 mph - N/A   Clear
5:35 PM 71.6 °F 71.6 °F 100% 29.90 in 5.0 mi East 11.5 mph - N/A   Clear
5:55 PM 71.6 °F 71.6 °F 100% 29.90 in 4.0 mi East 12.7 mph - N/A   Clear
6:15 PM 71.6 °F 71.6 °F 100% 29.90 in 5.0 mi East 11.5 mph - N/A   Clear
6:35 PM 71.6 °F 71.6 °F 100% 29.90 in 4.0 mi East 13.8 mph - N/A   Clear
6:55 PM 71.6 °F 71.6 °F 100% 29.91 in 4.0 mi East 12.7 mph - N/A   Clear
7:15 PM 69.8 °F 69.8 °F 100% 29.91 in 3.0 mi East 13.8 mph - N/A   Scattered Clouds
7:35 PM 71.6 °F 71.6 °F 100% 29.91 in 2.5 mi East 12.7 mph - N/A   Scattered Clouds
7:55 PM 71.6 °F 71.6 °F 100% 29.91 in 2.0 mi East 12.7 mph - N/A   Clear
8:15 PM 71.6 °F 71.6 °F 100% 29.92 in 3.0 mi ENE 13.8 mph - N/A   Scattered Clouds
8:35 PM 71.6 °F 71.6 °F 100% 29.92 in 3.0 mi East 13.8 mph - N/A   Overcast
8:55 PM 71.6 °F 71.6 °F 100% 29.92 in 4.0 mi East 13.8 mph - N/A   Overcast
9:15 PM 71.6 °F 71.6 °F 100% 29.93 in 4.0 mi East 12.7 mph - N/A   Overcast
9:35 PM 71.6 °F 71.6 °F 100% 29.94 in 4.0 mi East 12.7 mph - N/A   Overcast
9:55 PM 71.6 °F 71.6 °F 100% 29.95 in 3.0 mi East 11.5 mph - N/A   Overcast
10:15 PM 71.6 °F 71.6 °F 100% 29.96 in 3.0 mi East 11.5 mph - N/A   Overcast
10:35 PM 71.6 °F 71.6 °F 100% 29.96 in 3.0 mi East 11.5 mph - N/A   Overcast
10:55 PM 71.6 °F 71.6 °F 100% 29.97 in 2.5 mi ENE 10.4 mph - N/A   Overcast
11:15 PM 71.6 °F 71.6 °F 100% 29.97 in 3.0 mi NE 12.7 mph - N/A   Overcast
11:35 PM 71.6 °F 71.6 °F 100% 29.97 in 2.5 mi NE 13.8 mph - N/A   Overcast
11:55 PM 71.6 °F 71.6 °F 100% 29.98 in 3.0 mi ENE 15.0 mph - N/A   Overcast